Time,TemperatureF,DewpointF,PressureIn,WindDirection,WindDirectionDegrees,WindSpeedMPH,WindSpeedGustMPH,Humidity,HourlyPrecipIn,Conditions,Clouds,dailyrainin,SoftwareType,DateUTC
2013-04-16 00:03:00,49.0,48.0,30.24,North,0,0.0,2.0,98,0.00,,,0.49,,2013-04-16 04:03:00,
2013-04-16 00:12:00,49.0,48.0,30.24,North,0,0.0,2.0,98,0.00,,,0.49,,2013-04-16 04:12:00,
2013-04-16 00:23:00,49.0,48.0,30.24,North,0,0.0,1.0,98,0.00,,,0.49,,2013-04-16 04:23:00,
2013-04-16 00:33:00,49.0,48.0,30.23,North,0,0.0,0.0,98,0.00,,,0.48,,2013-04-16 04:33:00,
2013-04-16 00:42:00,49.0,48.0,30.23,North,0,0.0,0.0,98,0.00,,,0.48,,2013-04-16 04:42:00,
2013-04-16 00:53:00,49.0,48.0,30.23,North,0,0.0,0.0,98,0.00,,,0.48,,2013-04-16 04:53:00,
2013-04-16 01:02:00,49.0,48.0,30.23,North,0,0.0,1.0,98,0.00,,,0.48,,2013-04-16 05:02:00,
2013-04-16 01:12:00,49.0,48.0,30.23,North,0,0.0,1.0,98,0.00,,,0.48,,2013-04-16 05:12:00,
2013-04-16 01:22:00,49.0,48.0,30.23,North,0,0.0,1.0,98,0.00,,,0.48,,2013-04-16 05:22:00,
2013-04-16 01:32:00,49.0,48.0,30.23,North,0,0.0,1.0,98,0.00,,,0.47,,2013-04-16 05:32:00,
2013-04-16 01:42:00,49.0,48.0,30.23,North,0,0.0,1.0,98,0.00,,,0.47,,2013-04-16 05:42:00,
2013-04-16 01:52:00,49.0,48.0,30.23,North,0,0.0,1.0,98,0.00,,,0.45,,2013-04-16 05:52:00,
2013-04-16 02:02:00,49.0,48.0,30.22,North,0,0.0,1.0,98,0.00,,,0.44,,2013-04-16 06:02:00,
2013-04-16 02:12:00,49.0,48.0,30.22,North,0,0.0,4.0,98,0.00,,,0.43,,2013-04-16 06:12:00,
2013-04-16 02:22:00,49.0,48.0,30.22,North,0,0.0,4.0,98,0.00,,,0.43,,2013-04-16 06:22:00,
2013-04-16 02:32:00,50.0,49.0,30.22,North,0,0.0,1.0,98,0.00,,,0.42,,2013-04-16 06:32:00,
2013-04-16 02:42:00,50.0,49.0,30.22,North,0,0.0,1.0,98,0.00,,,0.42,,2013-04-16 06:42:00,
2013-04-16 02:52:00,50.0,49.0,30.22,North,0,0.0,2.0,98,0.00,,,0.42,,2013-04-16 06:52:00,
2013-04-16 03:02:00,50.0,49.0,30.22,North,0,0.0,1.0,98,0.00,,,0.41,,2013-04-16 07:02:00,
2013-04-16 03:12:00,50.0,49.0,30.22,North,0,0.0,1.0,98,0.00,,,0.41,,2013-04-16 07:12:00,
2013-04-16 03:22:00,50.0,49.0,30.22,North,0,0.0,1.0,98,0.00,,,0.40,,2013-04-16 07:22:00,
2013-04-16 03:32:00,50.0,49.0,30.21,North,0,0.0,2.0,98,0.00,,,0.37,,2013-04-16 07:32:00,
2013-04-16 03:42:00,50.0,49.0,30.21,North,0,0.0,2.0,98,0.00,,,0.37,,2013-04-16 07:42:00,
2013-04-16 03:53:00,50.0,49.0,30.21,North,0,0.0,3.0,98,0.00,,,0.35,,2013-04-16 07:53:00,
2013-04-16 04:02:00,50.0,49.0,30.21,North,0,0.0,3.0,98,0.00,,,0.34,,2013-04-16 08:02:00,
2013-04-16 04:12:00,50.0,49.0,30.21,North,0,0.0,3.0,98,0.00,,,0.34,,2013-04-16 08:12:00,
2013-04-16 04:22:00,50.0,49.0,30.21,West,281,1.0,4.0,98,0.00,,,0.32,,2013-04-16 08:22:00,
2013-04-16 04:32:00,50.0,49.0,30.21,North,0,0.0,3.0,98,0.00,,,0.32,,2013-04-16 08:32:00,
2013-04-16 04:42:00,50.0,49.0,30.21,North,0,0.0,3.0,98,0.00,,,0.32,,2013-04-16 08:42:00,
2013-04-16 04:52:00,50.0,49.0,30.21,West,263,1.0,3.0,98,0.00,,,0.31,,2013-04-16 08:52:00,
2013-04-16 05:02:00,50.0,49.0,30.21,North,0,0.0,2.0,98,0.00,,,0.31,,2013-04-16 09:02:00,
2013-04-16 05:12:00,50.0,49.0,30.21,North,0,0.0,2.0,98,0.00,,,0.31,,2013-04-16 09:12:00,
2013-04-16 05:22:00,50.0,49.0,30.21,North,0,0.0,3.0,98,0.00,,,0.30,,2013-04-16 09:22:00,
2013-04-16 05:33:00,51.0,50.0,30.21,North,0,0.0,2.0,98,0.01,,,0.29,,2013-04-16 09:33:00,
2013-04-16 05:42:00,51.0,50.0,30.21,North,0,0.0,2.0,98,0.01,,,0.29,,2013-04-16 09:42:00,
2013-04-16 05:53:00,51.0,50.0,30.22,North,0,0.0,2.0,98,0.01,,,0.28,,2013-04-16 09:53:00,
2013-04-16 06:03:00,51.0,50.0,30.22,West,281,1.0,3.0,98,0.01,,,0.27,,2013-04-16 10:03:00,
2013-04-16 06:13:00,51.0,50.0,30.22,West,281,1.0,3.0,98,0.01,,,0.27,,2013-04-16 10:13:00,
2013-04-16 06:23:00,51.0,50.0,30.22,West,266,1.0,3.0,98,0.01,,,0.26,,2013-04-16 10:23:00,
2013-04-16 06:33:00,51.0,50.0,30.22,WSW,241,1.0,3.0,98,0.00,,,0.26,,2013-04-16 10:33:00,
2013-04-16 06:42:00,51.0,50.0,30.22,WSW,241,1.0,3.0,98,0.00,,,0.26,,2013-04-16 10:42:00,
2013-04-16 06:53:00,51.0,51.0,30.23,WSW,243,3.0,6.0,99,0.00,,,0.25,,2013-04-16 10:53:00,
2013-04-16 07:02:00,51.0,50.0,30.24,WSW,237,1.0,4.0,98,0.00,,,0.25,,2013-04-16 11:02:00,
2013-04-16 07:12:00,51.0,50.0,30.24,WSW,237,1.0,4.0,98,0.00,,,0.25,,2013-04-16 11:12:00,
2013-04-16 07:22:00,52.0,52.0,30.24,WSW,241,1.0,5.0,99,0.00,,,0.24,,2013-04-16 11:22:00,
2013-04-16 07:32:00,52.0,52.0,30.24,North,0,0.0,5.0,99,0.00,,,0.23,,2013-04-16 11:32:00,
2013-04-16 07:42:00,52.0,52.0,30.24,North,0,0.0,5.0,99,0.00,,,0.23,,2013-04-16 11:42:00,
2013-04-16 07:53:00,52.0,52.0,30.25,West,262,2.0,9.0,99,0.00,,,0.23,,2013-04-16 11:53:00,
2013-04-16 08:02:00,52.0,52.0,30.25,North,0,0.0,7.0,99,0.00,,,0.20,,2013-04-16 12:02:00,
2013-04-16 08:12:00,52.0,52.0,30.25,North,0,0.0,7.0,99,0.00,,,0.20,,2013-04-16 12:12:00,
2013-04-16 08:22:00,52.0,52.0,30.26,West,270,1.0,5.0,99,0.00,,,0.18,,2013-04-16 12:22:00,
2013-04-16 08:32:00,52.0,52.0,30.27,West,265,3.0,7.0,99,0.00,,,0.17,,2013-04-16 12:32:00,
2013-04-16 08:42:00,52.0,52.0,30.27,West,265,3.0,7.0,99,0.00,,,0.17,,2013-04-16 12:42:00,
2013-04-16 08:52:00,52.0,52.0,30.27,West,260,2.0,7.0,99,0.00,,,0.16,,2013-04-16 12:52:00,
2013-04-16 09:02:00,52.0,52.0,30.28,West,259,1.0,5.0,99,0.00,,,0.15,,2013-04-16 13:02:00,
2013-04-16 09:12:00,52.0,52.0,30.28,West,259,1.0,5.0,99,0.00,,,0.15,,2013-04-16 13:12:00,
2013-04-16 09:22:00,52.0,52.0,30.28,SW,233,1.0,9.0,99,0.00,,,0.14,,2013-04-16 13:22:00,
2013-04-16 09:32:00,52.0,52.0,30.28,WSW,252,1.0,5.0,99,0.00,,,0.13,,2013-04-16 13:32:00,
2013-04-16 09:42:00,52.0,52.0,30.28,WSW,252,1.0,5.0,99,0.00,,,0.13,,2013-04-16 13:42:00,
2013-04-16 09:52:00,53.0,53.0,30.28,WNW,298,2.0,5.0,99,0.00,,,0.11,,2013-04-16 13:52:00,
2013-04-16 10:02:00,53.0,53.0,30.29,SW,219,2.0,6.0,99,0.00,,,0.09,,2013-04-16 14:02:00,
2013-04-16 10:12:00,53.0,53.0,30.29,SW,219,2.0,6.0,99,0.00,,,0.09,,2013-04-16 14:12:00,
2013-04-16 10:22:00,53.0,53.0,30.29,North,0,0.0,8.0,99,0.00,,,0.08,,2013-04-16 14:22:00,
2013-04-16 10:32:00,54.0,54.0,30.29,WSW,237,2.0,7.0,99,0.00,,,0.07,,2013-04-16 14:32:00,
2013-04-16 10:42:00,54.0,54.0,30.29,WSW,237,2.0,7.0,99,0.00,,,0.07,,2013-04-16 14:42:00,
2013-04-16 10:52:00,55.0,55.0,30.29,North,0,0.0,4.0,99,0.00,,,0.06,,2013-04-16 14:52:00,
2013-04-16 11:02:00,55.0,54.0,30.29,North,0,0.0,4.0,98,0.00,,,0.06,,2013-04-16 15:02:00,
2013-04-16 11:12:00,55.0,54.0,30.29,North,0,0.0,4.0,98,0.00,,,0.06,,2013-04-16 15:12:00,
2013-04-16 11:22:00,55.0,54.0,30.29,SW,215,1.0,5.0,98,0.00,,,0.05,,2013-04-16 15:22:00,
2013-04-16 11:33:00,56.0,55.0,30.30,SSW,207,2.0,10.0,98,0.00,,,0.05,,2013-04-16 15:33:00,
2013-04-16 11:43:00,56.0,55.0,30.30,SSW,207,2.0,10.0,98,0.00,,,0.05,,2013-04-16 15:43:00,
2013-04-16 11:53:00,56.0,55.0,30.29,North,0,0.0,8.0,98,0.00,,,0.05,,2013-04-16 15:53:00,
2013-04-16 12:03:00,57.0,56.0,30.29,West,263,1.0,8.0,97,0.00,,,0.05,,2013-04-16 16:03:00,
2013-04-16 12:13:00,57.0,56.0,30.29,West,263,1.0,8.0,97,0.00,,,0.05,,2013-04-16 16:13:00,
2013-04-16 12:23:00,59.0,58.0,30.29,WNW,289,2.0,4.0,98,0.00,,,0.05,,2013-04-16 16:23:00,
2013-04-16 12:32:00,59.0,57.0,30.29,WSW,256,1.0,6.0,93,0.00,,,0.05,,2013-04-16 16:32:00,
2013-04-16 12:42:00,59.0,57.0,30.29,WSW,256,1.0,6.0,93,0.00,,,0.05,,2013-04-16 16:42:00,
2013-04-16 12:53:00,62.0,57.0,30.29,South,186,2.0,6.0,85,0.00,,,0.05,,2013-04-16 16:53:00,
2013-04-16 13:02:00,62.0,57.0,30.28,North,0,0.0,5.0,84,0.00,,,0.04,,2013-04-16 17:02:00,
2013-04-16 13:12:00,62.0,57.0,30.28,North,0,0.0,5.0,84,0.00,,,0.04,,2013-04-16 17:12:00,
2013-04-16 13:22:00,63.0,56.0,30.28,North,0,0.0,4.0,77,0.00,,,0.03,,2013-04-16 17:22:00,
2013-04-16 13:32:00,63.0,57.0,30.28,North,0,0.0,3.0,81,0.00,,,0.02,,2013-04-16 17:32:00,
2013-04-16 13:43:00,63.0,57.0,30.28,North,0,0.0,3.0,81,0.00,,,0.02,,2013-04-16 17:43:00,
2013-04-16 13:53:00,63.0,57.0,30.27,North,0,0.0,4.0,80,0.00,,,0.02,,2013-04-16 17:53:00,
2013-04-16 14:02:00,64.0,57.0,30.27,North,0,0.0,2.0,77,0.00,,,0.02,,2013-04-16 18:02:00,
2013-04-16 14:12:00,64.0,57.0,30.27,North,0,0.0,2.0,77,0.00,,,0.02,,2013-04-16 18:12:00,
2013-04-16 14:22:00,64.0,57.0,30.27,North,0,0.0,2.0,77,0.00,,,0.02,,2013-04-16 18:22:00,
2013-04-16 14:32:00,65.0,58.0,30.26,North,0,0.0,6.0,78,0.00,,,0.02,,2013-04-16 18:32:00,
2013-04-16 14:42:00,65.0,58.0,30.26,North,0,0.0,6.0,78,0.00,,,0.02,,2013-04-16 18:42:00,
2013-04-16 14:52:00,65.0,58.0,30.26,North,0,0.0,3.0,78,0.00,,,0.02,,2013-04-16 18:52:00,
2013-04-16 15:02:00,65.0,58.0,30.25,SW,224,2.0,5.0,77,0.00,,,0.02,,2013-04-16 19:02:00,
2013-04-16 15:12:00,65.0,58.0,30.25,SW,224,2.0,5.0,77,0.00,,,0.02,,2013-04-16 19:12:00,
2013-04-16 15:22:00,66.0,59.0,30.24,North,0,0.0,4.0,78,0.00,,,0.02,,2013-04-16 19:22:00,
2013-04-16 15:32:00,65.0,58.0,30.24,North,0,0.0,3.0,77,0.00,,,0.02,,2013-04-16 19:32:00,
2013-04-16 15:42:00,65.0,58.0,30.24,North,0,0.0,3.0,77,0.00,,,0.02,,2013-04-16 19:42:00,
2013-04-16 15:52:00,65.0,58.0,30.24,North,0,0.0,4.0,79,0.00,,,0.02,,2013-04-16 19:52:00,
2013-04-16 16:02:00,66.0,59.0,30.23,West,271,1.0,4.0,78,0.00,,,0.02,,2013-04-16 20:02:00,
2013-04-16 16:12:00,66.0,59.0,30.23,West,271,1.0,4.0,78,0.00,,,0.02,,2013-04-16 20:12:00,
2013-04-16 16:22:00,65.0,58.0,30.22,West,268,1.0,3.0,78,0.00,,,0.02,,2013-04-16 20:22:00,
2013-04-16 16:32:00,66.0,58.0,30.22,WNW,284,2.0,5.0,75,0.00,,,0.02,,2013-04-16 20:32:00,
2013-04-16 16:42:00,66.0,58.0,30.22,WNW,284,2.0,5.0,75,0.00,,,0.02,,2013-04-16 20:42:00,
2013-04-16 16:52:00,67.0,57.0,30.22,West,259,2.0,7.0,71,0.00,,,0.02,,2013-04-16 20:52:00,
2013-04-16 17:02:00,67.0,59.0,30.22,North,0,0.0,4.0,75,0.00,,,0.01,,2013-04-16 21:02:00,
2013-04-16 17:12:00,67.0,59.0,30.22,North,0,0.0,4.0,75,0.00,,,0.01,,2013-04-16 21:12:00,
2013-04-16 17:22:00,69.0,59.0,30.22,West,273,2.0,5.0,70,0.00,,,0.01,,2013-04-16 21:22:00,
2013-04-16 17:32:00,69.0,58.0,30.22,West,273,3.0,6.0,69,0.00,,,0.01,,2013-04-16 21:32:00,
2013-04-16 17:43:00,69.0,58.0,30.22,West,273,3.0,6.0,69,0.00,,,0.01,,2013-04-16 21:43:00,
2013-04-16 17:53:00,69.0,57.0,30.22,West,275,3.0,7.0,66,0.00,,,0.01,,2013-04-16 21:53:00,
2013-04-16 18:03:00,69.0,58.0,30.21,West,267,2.0,6.0,67,0.00,,,0.01,,2013-04-16 22:03:00,
2013-04-16 18:13:00,69.0,58.0,30.21,West,267,2.0,6.0,67,0.00,,,0.01,,2013-04-16 22:13:00,
2013-04-16 18:22:00,70.0,59.0,30.21,North,0,0.0,5.0,67,0.00,,,0.01,,2013-04-16 22:22:00,
2013-04-16 18:33:00,69.0,58.0,30.21,WNW,299,2.0,7.0,67,0.00,,,0.01,,2013-04-16 22:33:00,
2013-04-16 18:42:00,69.0,58.0,30.21,WNW,299,2.0,7.0,67,0.00,,,0.01,,2013-04-16 22:42:00,
2013-04-16 18:52:00,69.0,58.0,30.21,West,266,2.0,6.0,67,0.00,,,0.01,,2013-04-16 22:52:00,
2013-04-16 19:02:00,66.0,56.0,30.21,West,265,1.0,5.0,71,0.00,,,0.01,,2013-04-16 23:02:00,
2013-04-16 19:12:00,66.0,56.0,30.21,West,265,1.0,5.0,71,0.00,,,0.01,,2013-04-16 23:12:00,
2013-04-16 19:22:00,64.0,56.0,30.21,North,0,0.0,2.0,75,0.00,,,0.01,,2013-04-16 23:22:00,
2013-04-16 19:32:00,64.0,56.0,30.21,North,0,0.0,3.0,76,0.00,,,0.01,,2013-04-16 23:32:00,
2013-04-16 19:42:00,64.0,56.0,30.21,North,0,0.0,3.0,76,0.00,,,0.01,,2013-04-16 23:42:00,
2013-04-16 19:52:00,62.0,55.0,30.21,North,0,0.0,3.0,79,0.00,,,0.01,,2013-04-16 23:52:00,
2013-04-16 20:02:00,61.0,55.0,30.21,North,0,0.0,3.0,80,0.00,,,0.01,,2013-04-17 00:02:00,
2013-04-16 20:12:00,61.0,55.0,30.21,North,0,0.0,3.0,80,0.00,,,0.01,,2013-04-17 00:12:00,
2013-04-16 20:22:00,61.0,55.0,30.22,WSW,238,1.0,4.0,81,0.00,,,0.01,,2013-04-17 00:22:00,
2013-04-16 20:32:00,60.0,54.0,30.22,WSW,238,1.0,4.0,81,0.00,,,0.01,,2013-04-17 00:32:00,
2013-04-16 20:42:00,60.0,54.0,30.22,WSW,238,1.0,4.0,81,0.00,,,0.01,,2013-04-17 00:42:00,
2013-04-16 20:52:00,60.0,54.0,30.23,North,0,0.0,3.0,82,0.00,,,0.01,,2013-04-17 00:52:00,
2013-04-16 21:02:00,59.0,54.0,30.23,North,0,0.0,3.0,83,0.00,,,0.01,,2013-04-17 01:02:00,
2013-04-16 21:12:00,59.0,54.0,30.23,North,0,0.0,3.0,83,0.00,,,0.01,,2013-04-17 01:12:00,
2013-04-16 21:22:00,59.0,54.0,30.23,WSW,257,1.0,5.0,84,0.00,,,0.01,,2013-04-17 01:22:00,
2013-04-16 21:32:00,60.0,55.0,30.24,WSW,248,1.0,4.0,83,0.00,,,0.01,,2013-04-17 01:32:00,
2013-04-16 21:42:00,60.0,55.0,30.24,WSW,248,1.0,4.0,83,0.00,,,0.01,,2013-04-17 01:42:00,
2013-04-16 21:52:00,60.0,55.0,30.24,SW,232,3.0,8.0,83,0.00,,,0.01,,2013-04-17 01:52:00,
2013-04-16 22:02:00,60.0,54.0,30.24,WSW,241,3.0,9.0,82,0.00,,,0.01,,2013-04-17 02:02:00,
2013-04-16 22:12:00,60.0,54.0,30.24,WSW,241,3.0,9.0,82,0.00,,,0.01,,2013-04-17 02:12:00,
2013-04-16 22:22:00,60.0,54.0,30.25,WSW,243,2.0,10.0,81,0.00,,,0.01,,2013-04-17 02:22:00,
2013-04-16 22:32:00,60.0,54.0,30.25,SW,232,2.0,10.0,82,0.00,,,0.01,,2013-04-17 02:32:00,
2013-04-16 22:42:00,60.0,54.0,30.25,SW,232,2.0,10.0,82,0.00,,,0.01,,2013-04-17 02:42:00,
2013-04-16 22:52:00,60.0,54.0,30.25,SW,222,3.0,10.0,82,0.00,,,0.01,,2013-04-17 02:52:00,
2013-04-16 23:02:00,60.0,55.0,30.25,SW,222,4.0,12.0,83,0.00,,,0.01,,2013-04-17 03:02:00,
2013-04-16 23:12:00,60.0,55.0,30.25,SW,222,4.0,12.0,83,0.00,,,0.01,,2013-04-17 03:12:00,
2013-04-16 23:22:00,60.0,55.0,30.24,WSW,240,3.0,11.0,83,0.00,,,0.01,,2013-04-17 03:22:00,
2013-04-16 23:33:00,60.0,55.0,30.24,WSW,240,3.0,11.0,83,0.00,,,0.01,,2013-04-17 03:33:00,
2013-04-16 23:42:00,60.0,55.0,30.24,WSW,240,3.0,11.0,83,0.00,,,0.01,,2013-04-17 03:42:00,
2013-04-16 23:53:00,59.0,54.0,30.23,SW,223,3.0,12.0,83,0.00,,,0.01,,2013-04-17 03:53:00,